[[{"header":{"parameterUnit":"m.s-1","parameterCategory":1,"la1":30.2991,"la2":30.254,"lo1":-89.0895,"lo2":-89.0444,"dy":0.0017,"dx":0.0017,"nx":28,"ny":28,"refTime":"2024-06-05T03:00:00:Z","depth":0,"parameterNumber":2,"parameterNumberName":"U-component_of_WINDS"},"data":[0,0,0,0,0,0,0,0,0,0,0,0,0,0,0,0,0,0,0,0,0,0,0,0,0,0,0,0,0,0,0,0,0,0,0,0,0,0,0,0,0,0,0,0,0,0,0,0,0,0,0,0,0,0,0,0,0,0,2.7778,2.7779,0,2.7848,2.7849,2.785,2.7859,2.7858,2.7858,2.7857,2.7925,2.7927,2.793,0,0,0,0,0,0,0,0,0,0,0,0,0,2.7648,2.765,2.7778,2.7779,2.7779,2.7848,2.7849,2.785,2.7859,2.7858,2.7857,2.7857,2.7924,2.7927,2.793,0,0,0,0,0,0,0,0,0,0,0,0,0,2.771,2.7651,2.7778,2.7792,2.7794,2.7848,2.7849,2.785,2.7859,2.7858,2.7857,2.7856,2.7923,2.7927,2.793,2.7973,0,0,2.7941,2.7943,0,0,0,0,0,0,0,0,2.7706,2.7714,2.7789,2.7791,2.7794,2.7844,2.7828,2.7891,2.7859,2.7834,2.7857,2.7856,2.7899,2.7904,2.7919,2.7976,2.7979,2.7942,2.7944,2.7946,2.7947,0,0,0,0,0,0,0,2.7702,2.7711,2.7805,2.779,2.7793,2.7794,2.7802,2.784,2.7871,2.7837,2.7837,2.7846,2.7899,2.7916,2.7921,2.798,2.7942,2.7945,2.7947,2.7949,2.8075,2.8076,0,0,0,0,0,0,2.7695,2.7708,2.7803,2.7808,2.7747,2.7798,2.7806,2.7829,2.7871,2.7876,2.7847,2.7846,2.791,2.7917,2.7923,2.7976,2.7946,2.7949,2.7951,2.8073,2.8075,2.8076,0,0,0,0,0,0,2.7693,2.7704,2.78,2.7758,2.777,2.7801,2.7826,2.7831,2.7847,2.7878,2.7883,2.7858,2.791,2.7918,2.7961,2.7978,2.7951,2.7954,2.8072,2.8074,2.8075,2.808,0,0,0,0,0,0,2.7689,2.7703,2.772,2.7758,2.7773,2.7837,2.7827,2.7833,2.7854,2.7854,2.789,2.7895,2.7909,2.7955,2.7964,2.7983,2.7957,2.8071,2.8073,2.8075,2.8079,2.8082,2.8085,0,0,0,0,0,2.7684,2.7717,2.7721,2.7732,2.7795,2.7838,2.7846,2.7863,2.7855,2.7872,2.7892,2.7894,2.7975,2.7959,2.797,2.7989,2.807,2.8072,2.8075,2.8077,2.8081,2.8085,0,0,0,0,0,0,2.7678,2.7723,2.7727,2.7774,2.7803,2.784,2.7862,2.7867,2.7897,2.7896,2.7914,2.7922,2.7964,2.7981,2.7963,2.8033,2.8021,2.8026,2.802,2.8024,2.8027,2.8021,2.796,0,0,0,0,0,2.7683,2.7716,2.7752,2.779,2.7805,2.7831,2.785,2.7861,2.7891,2.7903,2.7926,2.7954,2.7985,2.8006,2.8037,2.8082,2.8089,2.81,2.8103,2.8106,2.8109,2.8134,2.8139,2.8085,2.8085,2.8085,0,0,2.7692,2.772,2.774,2.779,2.7813,2.7846,2.7841,2.7875,2.7899,2.7907,2.7949,2.7967,2.7999,2.8043,2.8064,2.8059,2.8126,2.8109,2.8111,2.8113,2.8137,2.8142,2.8147,2.8086,2.8086,2.8086,0,0,2.7725,2.775,2.7785,2.7809,2.7845,2.7862,2.7871,2.7908,2.7921,2.7963,2.797,2.7998,2.8053,2.8075,2.8094,2.8137,2.814,2.8147,2.8162,2.8186,2.819,2.8194,2.8209,2.8214,2.815,2.815,2.815,0,2.7731,2.7782,2.7801,2.7836,2.7858,2.7868,2.7903,2.7925,2.7969,2.7983,2.7977,2.8046,2.8069,2.8118,2.8128,2.8143,2.8153,2.8142,2.8188,2.8192,2.8196,2.821,2.8216,2.8151,2.8151,2.8151,2.8151,0,2.7787,2.7822,2.7846,2.7889,2.7914,2.7948,2.7972,2.7994,2.8003,2.8021,2.8064,2.8091,2.8128,2.8141,2.8149,2.8191,2.8187,2.8185,2.8174,2.8202,2.8215,2.8221,2.8152,2.8151,2.8151,2.8151,0,0,2.7817,2.7873,2.7881,2.7901,2.7942,2.7969,2.8004,2.8041,2.806,2.809,2.8119,2.8165,2.8164,2.8185,2.8196,2.8217,2.8249,2.8212,2.8213,2.8217,2.8296,2.8297,2.8303,2.8251,2.8253,2.8254,2.8293,0,2.7854,2.7918,2.7937,2.799,2.8022,2.8033,2.8064,2.8092,2.8109,2.8138,2.8157,2.819,2.8186,2.8198,2.822,2.824,2.8265,2.8238,2.8277,2.8278,2.8268,2.8311,2.8311,2.8348,2.8299,2.83,2.8301,0,2.7906,2.7939,2.7995,2.8033,2.8047,2.8074,2.811,2.8139,2.817,2.8182,2.8206,2.8216,2.8251,2.824,2.8288,2.827,2.8287,2.83,2.8301,2.8305,2.829,2.8314,2.836,2.8365,2.8309,2.8309,2.8308,0,2.7921,2.798,2.8021,2.8038,2.8083,2.8102,2.8121,2.8153,2.8174,2.8205,2.8219,2.8254,2.8272,2.8298,2.8317,2.8306,2.8364,2.8353,2.8373,2.8373,2.8384,2.8383,2.8432,2.8397,2.8397,2.8396,2.8396,0,2.796,2.7994,2.8029,2.8054,2.8092,2.8114,2.815,2.817,2.8198,2.8227,2.8238,2.8265,2.8288,2.8317,2.8332,2.837,2.8378,2.8387,2.8391,2.8386,2.8384,2.8396,2.8394,2.8398,2.8398,2.8397,2.8397,0,2.7983,2.8008,2.8054,2.8094,2.8104,2.8131,2.8164,2.8189,2.8208,2.8244,2.8253,2.8282,2.8317,2.8339,2.8382,2.8392,2.8434,2.8437,2.8423,2.8425,2.8443,2.8441,2.8501,2.851,2.8469,2.847,2.847,0,2.8006,2.8033,2.8076,2.8097,2.8117,2.815,2.8173,2.8195,2.8217,2.8256,2.8276,2.8312,2.8342,2.8397,2.8422,2.8455,2.8458,2.8477,2.8463,2.8458,2.8458,2.8455,2.8458,2.8479,2.8479,2.848,2.848,0,2.8043,2.8055,2.8087,2.8125,2.8152,2.8182,2.8211,2.8227,2.8254,2.8279,2.8316,2.834,2.8385,2.8421,2.8457,2.8476,2.8482,2.8484,2.8491,2.8485,2.8476,2.8481,2.8429,2.8482,2.8482,2.8482,2.8482,2.8482,2.8067,2.8091,2.8125,2.8161,2.8187,2.8214,2.824,2.8262,2.8294,2.8334,2.8345,2.8383,2.8415,2.8464,2.8484,2.8513,2.851,2.8519,2.8522,2.8523,2.8523,2.8473,2.852,2.852,2.852,2.852,2.852,0,2.8104,2.8127,2.816,2.8202,2.8231,2.8236,2.827,2.8292,2.8327,2.8356,2.8386,2.8428,2.8463,2.8491,2.8526,2.8544,2.8548,2.8553,2.8551,2.8555,2.8524,2.8515,2.8549,2.8549,2.8549,2.8549,2.8549,2.8549,2.8127,2.8168,2.8183,2.8237,2.826,2.8299,2.8317,2.8343,2.8366,2.8414,2.8443,2.8462,2.849,2.8528,2.856,2.8567,2.8579,2.8583,2.859,2.8561,2.8557,2.8554,2.8546,2.8586,2.8586,2.8619,2.8619,2.8619]},{"header":{"parameterUnit":"m.s-1","parameterCategory":1,"la1":30.2991,"la2":30.254,"lo1":-89.0895,"lo2":-89.0444,"dy":0.0017,"dx":0.0017,"nx":28,"ny":28,"refTime":"2024-06-05T03:00:00:Z","depth":0,"parameterNumber":3,"parameterNumberName":"V-component_of_WINDS"},"data":[0,0,0,0,0,0,0,0,0,0,0,0,0,0,0,0,0,0,0,0,0,0,0,0,0,0,0,0,0,0,0,0,0,0,0,0,0,0,0,0,0,0,0,0,0,0,0,0,0,0,0,0,0,0,0,0,0,0,1.179,1.1791,0,1.1836,1.1837,1.1837,1.1816,1.1815,1.1813,1.1812,1.1861,1.1864,1.1866,0,0,0,0,0,0,0,0,0,0,0,0,0,1.1685,1.1687,1.179,1.1791,1.1791,1.1836,1.1837,1.1837,1.1816,1.1814,1.1813,1.1812,1.186,1.1863,1.1866,0,0,0,0,0,0,0,0,0,0,0,0,0,1.1731,1.1687,1.179,1.1786,1.1786,1.1836,1.1837,1.1837,1.1816,1.1814,1.1813,1.1811,1.186,1.1863,1.1867,1.1924,0,0,1.1878,1.1879,0,0,0,0,0,0,0,0,1.1728,1.1735,1.1786,1.1786,1.1786,1.1818,1.1817,1.1866,1.1817,1.1805,1.1812,1.181,1.1849,1.1853,1.1865,1.1926,1.1928,1.1878,1.188,1.1882,1.1883,0,0,0,0,0,0,0,1.1725,1.1732,1.1808,1.1787,1.1787,1.1782,1.1787,1.1827,1.1836,1.1806,1.1804,1.181,1.1848,1.1862,1.1866,1.1929,1.1878,1.1881,1.1883,1.1885,1.2039,1.204,0,0,0,0,0,0,1.1722,1.173,1.1807,1.181,1.1752,1.1785,1.1791,1.181,1.1835,1.1838,1.1811,1.1809,1.1857,1.1862,1.1868,1.1937,1.1882,1.1885,1.1887,1.2037,1.2039,1.2041,0,0,0,0,0,0,1.1719,1.1729,1.1805,1.1769,1.1779,1.1789,1.1811,1.1812,1.1825,1.184,1.1841,1.1824,1.1856,1.1863,1.191,1.1938,1.1886,1.189,1.2034,1.2037,1.204,1.2075,0,0,0,0,0,0,1.1717,1.1728,1.175,1.177,1.1781,1.1846,1.1813,1.1814,1.1831,1.1828,1.1852,1.1854,1.1855,1.1905,1.1913,1.1942,1.1893,1.2032,1.2036,1.2039,1.2072,1.2079,1.2085,0,0,0,0,0,1.1713,1.1758,1.1751,1.176,1.1808,1.1847,1.1854,1.1853,1.1834,1.1856,1.1865,1.1853,1.1933,1.191,1.1919,1.195,1.203,1.2035,1.2039,1.2069,1.2078,1.2085,0,0,0,0,0,0,1.1742,1.1761,1.1753,1.1806,1.1825,1.1844,1.1872,1.1863,1.1889,1.1885,1.1884,1.1889,1.1938,1.1948,1.1921,1.2006,1.1979,1.1985,1.1998,1.2007,1.2013,1.2011,1.1896,0,0,0,0,0,1.1754,1.1784,1.1799,1.1845,1.1855,1.1861,1.1879,1.1877,1.1897,1.1905,1.1918,1.1938,1.1968,1.1988,1.2016,1.2072,1.2078,1.2098,1.2105,1.211,1.2117,1.2148,1.2157,1.2055,1.2055,1.2055,0,0,1.178,1.1794,1.1814,1.1851,1.1865,1.1897,1.1869,1.1903,1.1927,1.191,1.1956,1.1965,1.1988,1.204,1.2064,1.205,1.2146,1.2116,1.212,1.2124,1.2153,1.2163,1.2171,1.2058,1.2058,1.2057,0,0,1.1844,1.1858,1.1897,1.1912,1.1934,1.1939,1.1948,1.1968,1.1974,1.2018,1.2007,1.2035,1.2086,1.2103,1.2118,1.2188,1.2178,1.2197,1.2233,1.2264,1.2272,1.2279,1.2304,1.2314,1.2203,1.2203,1.2203,0,1.1875,1.1922,1.1919,1.1955,1.1971,1.1957,1.1997,1.2012,1.2042,1.2055,1.2039,1.2103,1.2117,1.2173,1.219,1.2202,1.2214,1.2195,1.227,1.2278,1.2284,1.2309,1.2318,1.2205,1.2205,1.2204,1.2204,0,1.1958,1.199,1.202,1.2049,1.2069,1.2107,1.211,1.2131,1.2127,1.2132,1.2178,1.2195,1.2226,1.2239,1.2235,1.2294,1.2286,1.227,1.2243,1.2296,1.2319,1.2329,1.2208,1.2207,1.2207,1.2206,0,0,1.2043,1.2069,1.208,1.2093,1.2116,1.2142,1.2179,1.2209,1.2227,1.2248,1.228,1.2323,1.2309,1.2326,1.2324,1.235,1.2405,1.2332,1.2332,1.2346,1.2472,1.2484,1.2495,1.2398,1.24,1.2401,1.247,0,1.211,1.2174,1.2172,1.2233,1.2263,1.2249,1.2281,1.2299,1.2305,1.2332,1.2339,1.237,1.2349,1.2359,1.2384,1.2393,1.2431,1.2388,1.2429,1.243,1.2425,1.2507,1.252,1.2585,1.2479,1.2481,1.2482,0,1.2196,1.222,1.2283,1.2302,1.2314,1.2343,1.2371,1.2396,1.2416,1.2419,1.2437,1.2431,1.2469,1.2439,1.2492,1.2463,1.2479,1.2486,1.2488,1.2493,1.246,1.2516,1.2605,1.2616,1.2496,1.2495,1.2494,0,1.2253,1.2301,1.2345,1.2356,1.2379,1.2399,1.241,1.2428,1.2446,1.2469,1.2481,1.2509,1.2525,1.2547,1.2549,1.2527,1.2602,1.2572,1.2606,1.2606,1.2624,1.2623,1.2719,1.2632,1.2632,1.2632,1.2632,0,1.2329,1.2368,1.2371,1.2398,1.2442,1.2439,1.2483,1.2491,1.2507,1.2536,1.2525,1.2553,1.2553,1.2581,1.2582,1.2626,1.2633,1.2636,1.2637,1.2638,1.2638,1.265,1.2646,1.2634,1.2634,1.2633,1.2633,0,1.2401,1.2404,1.2451,1.2468,1.2473,1.2505,1.2519,1.2545,1.255,1.2586,1.2595,1.2602,1.2635,1.2638,1.2676,1.2677,1.273,1.2725,1.2723,1.2723,1.2757,1.2754,1.2865,1.288,1.2782,1.2783,1.2784,0,1.2449,1.2479,1.2499,1.2517,1.2529,1.2558,1.2577,1.2575,1.2594,1.2619,1.2642,1.2673,1.2698,1.275,1.276,1.2788,1.2785,1.2821,1.2789,1.279,1.2787,1.2785,1.2789,1.2828,1.2829,1.283,1.2831,0,1.2536,1.2536,1.2562,1.2589,1.2611,1.2632,1.2652,1.2668,1.2668,1.2691,1.2723,1.2743,1.2781,1.2812,1.284,1.2851,1.2842,1.2841,1.285,1.2853,1.2851,1.2854,1.2742,1.2839,1.2838,1.2837,1.2837,1.2837,1.2598,1.2625,1.2642,1.2672,1.2687,1.2705,1.2731,1.2738,1.2765,1.2796,1.2793,1.2829,1.2848,1.2885,1.2897,1.2926,1.2914,1.2927,1.2931,1.2935,1.2939,1.2845,1.2931,1.2931,1.2931,1.293,1.293,0,1.2685,1.2696,1.2723,1.2751,1.2774,1.2762,1.2783,1.2804,1.2836,1.2854,1.2878,1.2916,1.2946,1.2957,1.2986,1.3007,1.3003,1.3015,1.3014,1.3017,1.2948,1.2937,1.3017,1.3017,1.3017,1.3017,1.3017,1.3017,1.2733,1.2777,1.2779,1.283,1.284,1.2875,1.2888,1.2905,1.292,1.2962,1.2987,1.2993,1.3009,1.3039,1.3066,1.3068,1.308,1.3094,1.3095,1.303,1.3022,1.3013,1.3003,1.3096,1.3096,1.3162,1.3162,1.3163]}]]